Tillbaka till svenska Fidonet
English   Information   Debug  
FILM   0/18
FNEWS_PUBLISH   4912
FN_SYSOP   42201
FN_SYSOP_OLD1   71952
FTP_FIDO   0/2
FTSC_PUBLIC   0/13972
FUNNY   0/4886
GENEALOGY.EUR   0/71
GET_INFO   105
GOLDED   0/408
HAM   9166/16648
HOLYSMOKE   0/6791
HOT_SITES   0/1
HTMLEDIT   0/71
HUB203   466
HUB_100   264
HUB_400   39
HUMOR   0/29
IC   0/2851
INTERNET   0/424
INTERUSER   0/3
IP_CONNECT   719
JAMNNTPD   0/233
JAMTLAND   0/47
KATTY_KORNER   0/41
LAN   0/16
LINUX-USER   0/19
LINUXHELP   0/1155
LINUX   0/22300
LINUX_BBS   0/957
mail   18.68
mail_fore_ok   249
MENSA   0/341
MODERATOR   0/102
MONTE   0/992
MOSCOW_OKLAHOMA   0/1245
MUFFIN   0/783
MUSIC   0/321
N203_STAT   938
N203_SYSCHAT   313
NET203   321
NET204   69
NET_DEV   0/10
NORD.ADMIN   0/101
NORD.CHAT   0/2572
NORD.FIDONET   189
NORD.HARDWARE   0/28
NORD.KULTUR   0/114
NORD.PROG   0/32
NORD.SOFTWARE   0/88
NORD.TEKNIK   0/58
NORD   0/453
OCCULT_CHAT   0/93
OS2BBS   0/787
OS2DOSBBS   0/580
OS2HW   0/42
OS2INET   0/37
OS2LAN   0/134
OS2PROG   0/36
OS2REXX   0/113
OS2USER-L   207
OS2   0/4829
OSDEBATE   6400/18996
PASCAL   0/490
PERL   0/457
PHP   0/45
POINTS   0/405
POLITICS   0/29554
POL_INC   0/14731
PSION   103
R20_ADMIN   1133
R20_AMATORRADIO   0/2
R20_BEST_OF_FIDONET   16
R20_CHAT   0/896
R20_DEPP   0/3
R20_DEV   400
R20_ECHO2   1820
R20_ECHOPRES   0/35
R20_ESTAT   0/719
R20_FIDONETPROG...
...RAM.MYPOINT
  0/2
R20_FIDONETPROGRAM   0/22
R20_FIDONET   0/248
R20_FILEFIND   0/24
R20_FILEFOUND   0/22
R20_HIFI   0/3
R20_INFO2   3712
R20_INTERNET   0/12940
R20_INTRESSE   0/60
R20_INTR_KOM   0/99
R20_KANDIDAT.CHAT   42
R20_KANDIDAT   28
R20_KOM_DEV   112
R20_KONTROLL   0/13360
R20_KORSET   0/18
R20_LOKALTRAFIK   0/24
R20_MODERATOR   0/1852
R20_NC   76
R20_NET200   245
R20_NETWORK.OTH...
...ERNETS
  0/13
R20_OPERATIVSYS...
...TEM.LINUX
  0/44
R20_PROGRAMVAROR   0/1
R20_REC2NEC   534
R20_SFOSM   0/341
R20_SF   0/108
R20_SPRAK.ENGLISH   0/1
R20_SQUISH   107
R20_TEST   2
R20_WORST_OF_FIDONET   20
RAR   0/9
RA_MULTI   106
RA_UTIL   0/162
REGCON.EUR   0/2068
REGCON   0/13
SCIENCE   0/1206
SF   0/239
SHAREWARE_SUPPORT   0/5146
SHAREWRE   0/14
SIMPSONS   0/169
STATS_OLD1   0/2539.065
STATS_OLD2   0/2530
STATS_OLD3   0/2395.095
STATS_OLD4   0/1692.25
SURVIVOR   0/495
SYSOPS_CORNER   0/3
SYSOP   0/84
TAGLINES   0/112
TEAMOS2   0/4530
TECH   0/2617
TEST.444   0/105
TRAPDOOR   0/19
TREK   0/755
TUB   0/290
UFO   0/40
UNIX   0/1316
USA_EURLINK   0/102
USR_MODEMS   0/1
VATICAN   0/2740
VIETNAM_VETS   0/14
VIRUS   0/378
VIRUS_INFO   0/201
VISUAL_BASIC   0/473
WHITEHOUSE   0/5187
WIN2000   0/101
WIN32   0/30
WIN95   0/4291
WIN95_OLD1   0/70272
WINDOWS   0/1517
WWB_SYSOP   0/419
WWB_TECH   0/810
ZCC-PUBLIC   0/1
ZEC   4

 
4DOS   0/134
ABORTION   0/7
ALASKA_CHAT   0/506
ALLFIX_FILE   0/1313
ALLFIX_FILE_OLD1   0/7997
ALT_DOS   0/152
AMATEUR_RADIO   0/1039
AMIGASALE   0/14
AMIGA   0/331
AMIGA_INT   0/1
AMIGA_PROG   0/20
AMIGA_SYSOP   0/26
ANIME   0/15
ARGUS   0/924
ASCII_ART   0/340
ASIAN_LINK   0/651
ASTRONOMY   0/417
AUDIO   0/92
AUTOMOBILE_RACING   0/105
BABYLON5   0/17862
BAG   135
BATPOWER   0/361
BBBS.ENGLISH   0/382
BBSLAW   0/109
BBS_ADS   0/5290
BBS_INTERNET   0/507
BIBLE   0/3563
BINKD   0/1119
BINKLEY   0/215
BLUEWAVE   0/2173
CABLE_MODEMS   0/25
CBM   0/46
CDRECORD   0/66
CDROM   0/20
CLASSIC_COMPUTER   0/378
COMICS   0/15
CONSPRCY   0/899
COOKING   41322
COOKING_OLD1   0/24719
COOKING_OLD2   0/40862
COOKING_OLD3   0/37489
COOKING_OLD4   0/35496
COOKING_OLD5   9370
C_ECHO   0/189
C_PLUSPLUS   0/31
DIRTY_DOZEN   0/201
DOORGAMES   0/2262
DOS_INTERNET   0/196
duplikat   6102
ECHOLIST   0/18295
EC_SUPPORT   0/318
ELECTRONICS   0/359
ELEKTRONIK.GER   1534
ENET.LINGUISTIC   0/13
ENET.POLITICS   0/4
ENET.SOFT   0/11701
ENET.SYSOP   34289
ENET.TALKS   0/32
ENGLISH_TUTOR   0/2000
EVOLUTION   0/1335
FDECHO   0/217
FDN_ANNOUNCE   0/7068
FIDONEWS   25048
FIDONEWS_OLD1   0/49742
FIDONEWS_OLD2   0/35949
FIDONEWS_OLD3   0/30874
FIDONEWS_OLD4   0/37224
FIDO_SYSOP   12922
FIDO_UTIL   0/180
FILEFIND   0/209
FILEGATE   0/212
Möte HAM, 16648 texter
 lista första sista föregående nästa
Text 2065, 815 rader
Skriven 2008-02-01 00:00:45 av Amsat List (1:323/120.0)
Ärende: [keps]  orb08031.amsa
=============================
[keps]  orb08031.amsa

Return-Path: <keps-bounces@amsat.org>
X-Rcpt: craig.healy@chowda.com
X-UIDL: 1201840670.14765

SB KEPS @ AMSAT  $ORB08031.O
Orbital Elements  08031.OSCAR

HR AMSAT ORBITAL ELEMENTS FOR OSCAR SATELLITES
FROM WA5QGD FORT WORTH,TX January 31, 2008
Send Subscribe/unsubscribe to KEPS at 
http://www.amsat.org/mailman/listinfo/keps
BID: ORB08031.O
TO ALL RADIO AMATEURS BT

Satellite: AO-07
Catalog number: 07530
Epoch time:      08030.66978313
Element set:    0094
Inclination:      101.4858 deg
RA of node:       066.7114 deg
Eccentricity:    0.0012060
Arg of perigee:   172.0914 deg
Mean anomaly:     188.0348 deg
Mean motion:   12.53573411 rev/day
Decay rate:       -2.7e-07 rev/day^2
Epoch rev:           51962
Checksum:              282

Satellite: AO-10
Catalog number: 14129
Epoch time:      08028.89929780
Element set:    0465
Inclination:      025.9366 deg
RA of node:       233.2570 deg
Eccentricity:    0.6035146
Arg of perigee:   094.0530 deg
Mean anomaly:     332.5554 deg
Mean motion:   02.05869724 rev/day
Decay rate:       -7.2e-07 rev/day^2
Epoch rev:           18521
Checksum:              310

Satellite: UO-11
Catalog number: 14781
Epoch time:      08030.48619328
Element set:    0584
Inclination:      098.1714 deg
RA of node:       062.3262 deg
Eccentricity:    0.0009451
Arg of perigee:   154.3290 deg
Mean anomaly:     205.8381 deg
Mean motion:   14.79613590 rev/day
Decay rate:       -6.0e-08 rev/day^2
Epoch rev:           28334
Checksum:              297

Satellite: RS-15
Catalog number: 23439
Epoch time:      08030.92065965
Element set:    0096
Inclination:      064.8189 deg
RA of node:       358.6366 deg
Eccentricity:    0.0151230
Arg of perigee:   149.0818 deg
Mean anomaly:     211.9115 deg
Mean motion:   11.27551677 rev/day
Decay rate:       -3.9e-07 rev/day^2
Epoch rev:           53937
Checksum:              324

Satellite: FO-29
Catalog number: 24278
Epoch time:      08030.83006679
Element set:    0710
Inclination:      098.5813 deg
RA of node:       325.2378 deg
Eccentricity:    0.0350161
Arg of perigee:   213.5881 deg
Mean anomaly:     144.2608 deg
Mean motion:   13.52935262 rev/day
Decay rate:       -2.2e-07 rev/day^2
Epoch rev:           56568
Checksum:              309

Satellite: SO-33
Catalog number: 25509
Epoch time:      08030.37011656
Element set:    0123
Inclination:      031.4333 deg
RA of node:       021.2561 deg
Eccentricity:    0.0355470
Arg of perigee:   253.5115 deg
Mean anomaly:     102.6170 deg
Mean motion:   14.28191677 rev/day
Decay rate:       -5.3e-07 rev/day^2
Epoch rev:           48375
Checksum:              263

Satellite: AO-40
Catalog number: 26609
Epoch time:      08030.26782122
Element set:       1
Inclination:      007.3250 deg
RA of node:       100.0120 deg
Eccentricity:    0.7926963
Arg of perigee:   046.7796 deg
Mean anomaly:     356.2403 deg
Mean motion:   01.25583275 rev/day
Decay rate:      -3.88e-06 rev/day^2
Epoch rev:            3329
Checksum:              279

Satellite: VO-52
Catalog number: 28650
Epoch time:      08031.21335527
Element set:     844
Inclination:      097.8053 deg
RA of node:       101.5115 deg
Eccentricity:    0.0026240
Arg of perigee:   229.6077 deg
Mean anomaly:     130.2886 deg
Mean motion:   14.81413679 rev/day
Decay rate:       -7.0e-07 rev/day^2
Epoch rev:           14817
Checksum:              289

Satellite: PO-63
Catalog number: 29712
Epoch time:      08031.78435619
Element set:     147
Inclination:      097.8933 deg
RA of node:       092.4549 deg
Eccentricity:    0.0015269
Arg of perigee:   106.6274 deg
Mean anomaly:     253.6605 deg
Mean motion:   14.80003768 rev/day
Decay rate:       4.41e-06 rev/day^2
Epoch rev:            5714
Checksum:              318

/EX
SB KEPS @ AMSAT  $ORB08031.D
Orbital Elements  08031.MICROS

HR AMSAT ORBITAL ELEMENTS FOR THE MICROSATS
FROM WA5QGD FORT WORTH,TX January 31, 2008
Send Subscribe/unsubscribe to KEPS at 
http://www.amsat.org/mailman/listinfo/keps
BID: ORB08031.D
TO ALL RADIO AMATEURS BT

Satellite: AO-16
Catalog number: 20439
Epoch time:      08029.51439287
Element set:    0240
Inclination:      098.2157 deg
RA of node:       016.8194 deg
Eccentricity:    0.0010057
Arg of perigee:   231.1126 deg
Mean anomaly:     128.9163 deg
Mean motion:   14.31782563 rev/day
Decay rate:       -2.1e-07 rev/day^2
Epoch rev:           94093
Checksum:              289

Satellite: LO-19
Catalog number: 20442
Epoch time:      08029.51503972
Element set:    0163
Inclination:      098.1917 deg
RA of node:       025.7442 deg
Eccentricity:    0.0011204
Arg of perigee:   228.2281 deg
Mean anomaly:     131.7954 deg
Mean motion:   14.32021827 rev/day
Decay rate:       -1.9e-07 rev/day^2
Epoch rev:           94108
Checksum:              279

Satellite: AO-27
Catalog number: 22825
Epoch time:      08030.51553216
Element set:    0887
Inclination:      098.3649 deg
RA of node:       355.8764 deg
Eccentricity:    0.0007941
Arg of perigee:   316.5550 deg
Mean anomaly:     043.5001 deg
Mean motion:   14.29228223 rev/day
Decay rate:      -1.90e-06 rev/day^2
Epoch rev:           74796
Checksum:              315

Satellite: IO-26
Catalog number: 22826
Epoch time:      08031.78355567
Element set:     589
Inclination:      098.3588 deg
RA of node:       358.0669 deg
Eccentricity:    0.0008339
Arg of perigee:   308.3786 deg
Mean anomaly:     051.6651 deg
Mean motion:   14.29476925 rev/day
Decay rate:        9.0e-08 rev/day^2
Epoch rev:           74823
Checksum:              362

